Craig, CO

6:53 PM MDT on October 20, 2019 (GMT -0600)
Craig-Moffat

Weather History for KCAG - September, 2019

Change the Weather History Date:

Saturday, September 21, 2019

  Actual Average Record
Temperature  
Mean Temperature 48 °F 53 °F  
Max Temperature 66 °F 72 °F 83 °F (2015)
Min Temperature 30 °F 35 °F 24 °F (1999)
Degree Days  
Heating Degree Days 17 12  
Month to date heating degree days 103 164  
Since 1 July heating degree days 120 241  
Cooling Degree Days 0 0  
Month to date cooling degree days 24 0  
Year to date cooling degree days 246 140  
Moisture  
Dew Point 26 °F    
Average Humidity 51    
Maximum Humidity 85    
Minimum Humidity 19    
Precipitation  
Precipitation 0.00 in 0.07 in 0.56 in (2000)
Month to date precipitation 0.66 1.33  
Year to date precipitation 11.67 11.39  
Sea Level Pressure  
Sea Level Pressure 30.07 in    
Wind  
Wind Speed 4 mph ()    
Max Wind Speed 18 mph    
Max Gust Speed 29 mph    
Visibility 10.0 miles    
Events      
T = Trace of Precipitation, MM = Missing Value Source: Averaged Metar Reports

Daily Weather History Graph

Daily Weather History Graph

Search for Another Location

Airport or City:

Astronomy

Sep. 21, 2019 Rise Set
Actual Time 6:56 AM MDT 7:09 PM MDT
Civil Twilight 6:29 AM MDT 7:36 PM MDT
Nautical Twilight 5:57 AM MDT 8:08 PM MDT
Astronomical Twilight 5:24 AM MDT 8:40 PM MDT
Moon 11:48 PM MDT 2:07 PM MDT
Length of Visible Light 13h 07m
Length of Day
12h 12m
Waning Gibbous, 54% of the Moon is Illuminated
Sep 21
Waning Gibbous
Sep 21
Last Quarter
Sep 28
New
Oct 5
First Quarter
Oct 13
Full

Hourly Weather History & Observations

Time (MDT) Temp. Windchill Dew Point Humidity Pressure Visibility Wind Dir Wind Speed Gust Speed Precip Events Conditions
12:53 AM 37.0 °F 32.4 °F 27.0 °F 67% 30.01 in 10.0 mi WSW 5.8 mph - N/A   Clear
1:53 AM 36.0 °F 31.1 °F 27.0 °F 70% 30.02 in 10.0 mi SSW 5.8 mph - N/A   Clear
2:53 AM 33.1 °F 30.0 °F 26.1 °F 75% 30.05 in 10.0 mi SW 3.5 mph - N/A   Clear
3:53 AM 32.0 °F - 26.1 °F 79% 30.07 in 10.0 mi Calm Calm - N/A   Clear
4:53 AM 33.1 °F - 27.0 °F 78% 30.08 in 10.0 mi Calm Calm - N/A   Clear
5:53 AM 34.0 °F 31.0 °F 27.0 °F 75% 30.10 in 10.0 mi East 3.5 mph - N/A   Clear
6:53 AM 30.9 °F 27.5 °F 27.0 °F 85% 30.13 in 10.0 mi ESE 3.5 mph - N/A   Clear
7:53 AM 36.0 °F 32.1 °F 28.9 °F 76% 30.13 in 10.0 mi ENE 4.6 mph - N/A   Clear
8:53 AM 45.0 °F - 30.0 °F 56% 30.11 in 10.0 mi Calm Calm - N/A   Clear
9:53 AM 51.1 °F - 28.9 °F 43% 30.10 in 10.0 mi Calm Calm - N/A   Clear
10:53 AM 54.0 °F - 28.0 °F 37% 30.07 in 10.0 mi NNE 4.6 mph - N/A   Clear
11:53 AM 59.0 °F - 27.0 °F 29% 30.06 in 10.0 mi Calm Calm - N/A   Clear
12:53 PM 63.0 °F - 26.1 °F 25% 30.04 in 10.0 mi WNW 10.4 mph 19.6 mph N/A   Clear
1:53 PM 63.0 °F - 25.0 °F 24% 30.02 in 10.0 mi WNW 12.7 mph 19.6 mph N/A   Clear
2:53 PM 64.0 °F - 24.1 °F 22% 30.01 in 10.0 mi West 15.0 mph 24.2 mph N/A   Clear
3:53 PM 64.0 °F - 21.9 °F 20% 30.02 in 10.0 mi WNW 13.8 mph 24.2 mph N/A   Clear
4:53 PM 63.0 °F - 21.0 °F 20% 30.02 in 10.0 mi WNW 12.7 mph - N/A   Clear
5:53 PM 60.1 °F - 21.9 °F 23% 30.03 in 10.0 mi NW 6.9 mph - N/A   Mostly Cloudy
6:53 PM 55.9 °F - 23.0 °F 28% 30.06 in 10.0 mi Calm Calm - N/A   Clear
7:53 PM 45.0 °F - 25.0 °F 46% 30.09 in 10.0 mi Calm Calm - N/A   Clear
8:53 PM 39.0 °F - 25.0 °F 57% 30.10 in 10.0 mi Calm Calm - N/A   Clear
9:53 PM 37.9 °F - 25.0 °F 60% 30.09 in 10.0 mi Calm Calm - N/A   Clear
10:53 PM 35.1 °F - 26.1 °F 70% 30.11 in 10.0 mi Calm Calm - N/A   Clear
11:53 PM 36.0 °F - 26.1 °F 67% 30.09 in 10.0 mi Calm Calm - N/A   Clear